When you browse on this site, cookies collect data to enhance your experience and personalize the content and advertising you see.
Visit our Privacy Policy to learn more. By continuing to use the site, you agree to this use of cookies and data.
  • In Switzerland
  • List of Countries
  • For 7 days
  • Water Temperature
  • Weather Map
  • Weather Widgets
  • user-avatar
    Login

    Hourly Weather Tuzla

    Today, 15 September, Sunday

    Time Temperature Precipitation Wind Pressure Humidity
    00:00 +15°C° 0 mm 0 mps 730 mmHg 80%
    01:00 +15°C° 0 mm 0 mps 730 mmHg 80%
    02:00 +14°C° 0 mm 0 mps 730 mmHg 83%
    03:00 +14°C° 0 mm 0 mps 730 mmHg 85%
    04:00 +13°C° 0 mm 0 mps 729 mmHg 87%
    05:00 +14°C° 0 mm 0 mps 729 mmHg 83%
    06:00 +15°C° 0 mm 0 mps 730 mmHg 79%
    07:00 +16°C° 0 mm 0 mps 730 mmHg 74%
    08:00 +20°C° 0 mm 1 mps 730 mmHg 66%
    09:00 +23°C° 0 mm 1 mps 730 mmHg 57%
    10:00 +25°C° 0 mm 1 mps 730 mmHg 48%
    11:00 +26°C° 0 mm 1 mps 729 mmHg 45%
    12:00 +27°C° 0 mm 1 mps 729 mmHg 42%
    13:00 +28°C° 0 mm 2 mps 729 mmHg 39%
    14:00 +28°C° 0 mm 1 mps 728 mmHg 40%
    15:00 +28°C° 0 mm 1 mps 728 mmHg 41%
    16:00 +27°C° 0 mm 1 mps 727 mmHg 43%
    17:00 +25°C° 0 mm 1 mps 727 mmHg 51%
    18:00 +22°C° 0 mm 1 mps 727 mmHg 59%
    19:00 +17°C° 0 mm 0 mps 727 mmHg 67%
    20:00 +19°C° 0 mm 1 mps 726 mmHg 69%
    21:00 +18°C° 0 mm 1 mps 726 mmHg 71%
    22:00 +16°C° 0 mm 1 mps 726 mmHg 73%
    23:00 +16°C° 0 mm 1 mps 726 mmHg 75%

    Tomorrow, 16 September, Monday

    Time Temperature Precipitation Wind Pressure Humidity
    00:00 +16°C° 0 mm 1 mps 726 mmHg 78%
    01:00 +15°C° 0 mm 1 mps 726 mmHg 80%
    02:00 +15°C° 0 mm 1 mps 725 mmHg 81%
    03:00 +15°C° 0 mm 1 mps 725 mmHg 82%
    04:00 +14°C° 0 mm 1 mps 725 mmHg 83%
    05:00 +16°C° 0 mm 1 mps 725 mmHg 79%
    06:00 +18°C° 0 mm 1 mps 725 mmHg 75%
    07:00 +19°C° 0 mm 1 mps 725 mmHg 71%
    08:00 +22°C° 0 mm 1 mps 725 mmHg 61%
    09:00 +23°C° 0 mm 0 mps 725 mmHg 52%
    10:00 +26°C° 0 mm 0 mps 725 mmHg 42%
    11:00 +27°C° 0 mm 0 mps 725 mmHg 38%
    12:00 +30°C° 0 mm 1 mps 725 mmHg 33%
    13:00 +31°C° 0 mm 1 mps 724 mmHg 29%
    14:00 +31°C° 0 mm 1 mps 724 mmHg 31%
    15:00 +30°C° 0 mm 1 mps 723 mmHg 33%
    16:00 +30°C° 0 mm 1 mps 723 mmHg 35%
    17:00 +27°C° 0 mm 1 mps 722 mmHg 40%
    18:00 +24°C° 0 mm 1 mps 722 mmHg 46%
    19:00 +19°C° 0 mm 0 mps 722 mmHg 51%
    20:00 +20°C° 0 mm 1 mps 722 mmHg 53%
    21:00 +20°C° 0 mm 1 mps 722 mmHg 54%
    22:00 +19°C° 0 mm 1 mps 722 mmHg 55%
    23:00 +19°C° 0 mm 1 mps 722 mmHg 57%

    Day after tomorrow, 17 September, Tuesday

    Time Temperature Precipitation Wind Pressure Humidity
    00:00 +18°C° 0 mm 1 mps 721 mmHg 59%
    01:00 +18°C° 0 mm 1 mps 721 mmHg 61%
    02:00 +16°C° 0 mm 1 mps 721 mmHg 62%
    03:00 +16°C° 0 mm 1 mps 721 mmHg 64%
    04:00 +16°C° 0 mm 1 mps 721 mmHg 66%
    05:00 +18°C° 0 mm 1 mps 721 mmHg 64%
    06:00 +19°C° 0 mm 1 mps 721 mmHg 63%
    07:00 +20°C° 0 mm 1 mps 721 mmHg 62%
    08:00 +22°C° 0 mm 1 mps 722 mmHg 55%
    09:00 +25°C° 0 mm 1 mps 722 mmHg 48%
    10:00 +27°C° 0 mm 1 mps 723 mmHg 41%
    11:00 +28°C° 0 mm 1 mps 722 mmHg 39%
    12:00 +29°C° 0 mm 1 mps 722 mmHg 36%
    13:00 +30°C° 0 mm 1 mps 722 mmHg 34%
    14:00 +30°C° 0 mm 1 mps 721 mmHg 35%
    15:00 +29°C° 0 mm 1 mps 721 mmHg 37%
    16:00 +29°C° 0 mm 1 mps 720 mmHg 39%
    17:00 +26°C° 0 mm 1 mps 720 mmHg 46%
    18:00 +24°C° 0 mm 1 mps 720 mmHg 53%
    19:00 +21°C° 0 mm 1 mps 720 mmHg 61%
    20:00 +18°C° 0 mm 0 mps 720 mmHg 64%
    21:00 +17°C° 0 mm 0 mps 720 mmHg 68%
    22:00 +16°C° 0 mm 0 mps 721 mmHg 71%
    23:00 +16°C° 0 mm 0 mps 721 mmHg 73%

    18 September, Wednesday

    Time Temperature Precipitation Wind Pressure Humidity
    00:00 +18°C° 0 mm 1 mps 721 mmHg 75%
    01:00 +16°C° 0 mm 1 mps 721 mmHg 77%
    02:00 +15°C° 0 mm 1 mps 721 mmHg 81%
    03:00 +15°C° 0 mm 1 mps 722 mmHg 85%
    04:00 +14°C° 0 mm 2 mps 722 mmHg 89%
    05:00 +14°C° 0.1 mm 2 mps 722 mmHg 90%
    06:00 +14°C° 0.1 mm 2 mps 723 mmHg 91%
    07:00 +14°C° 0.1 mm 2 mps 723 mmHg 93%
    08:00 +14°C° 0.2 mm 2 mps 724 mmHg 92%
    09:00 +14°C° 0.2 mm 2 mps 724 mmHg 92%
    10:00 +13°C° 0.2 mm 2 mps 725 mmHg 92%
    11:00 +14°C° 0 mm 2 mps 724 mmHg 89%
    12:00 +14°C° 0 mm 2 mps 724 mmHg 86%
    13:00 +14°C° 0 mm 2 mps 724 mmHg 83%
    14:00 +14°C° 0 mm 2 mps 724 mmHg 82%
    15:00 +14°C° 0 mm 2 mps 724 mmHg 80%
    16:00 +14°C° 0 mm 1 mps 723 mmHg 79%
    17:00 +13°C° 0 mm 1 mps 723 mmHg 82%
    18:00 +13°C° 0 mm 1 mps 723 mmHg 85%
    19:00 +12°C° 0 mm 1 mps 723 mmHg 88%
    20:00 +11°C° 0.3 mm 1 mps 723 mmHg 90%
    21:00 +11°C° 0.3 mm 1 mps 723 mmHg 92%
    22:00 +11°C° 0.3 mm 1 mps 724 mmHg 94%
    23:00 +10°C° 0.1 mm 1 mps 724 mmHg 94%

    19 September, Thursday

    Time Temperature Precipitation Wind Pressure Humidity
    00:00 +10°C° 0.1 mm 1 mps 723 mmHg 94%
    01:00 +10°C° 0.1 mm 1 mps 723 mmHg 93%
    02:00 +10°C° 0.5 mm 1 mps 723 mmHg 94%
    03:00 +10°C° 0.5 mm 1 mps 723 mmHg 95%
    04:00 +9°C° 0.5 mm 1 mps 723 mmHg 95%
    05:00 +9°C° 1.5 mm 1 mps 723 mmHg 95%
    06:00 +9°C° 1.5 mm 1 mps 723 mmHg 96%
    07:00 +9°C° 1.5 mm 1 mps 723 mmHg 96%
    08:00 +9°C° 0.4 mm 1 mps 723 mmHg 95%
    09:00 +9°C° 0.4 mm 1 mps 724 mmHg 94%
    10:00 +9°C° 0.4 mm 1 mps 724 mmHg 92%
    11:00 +9°C° 0 mm 1 mps 724 mmHg 89%
    12:00 +10°C° 0 mm 1 mps 724 mmHg 85%
    13:00 +10°C° 0 mm 1 mps 724 mmHg 81%
    14:00 +11°C° 0 mm 1 mps 724 mmHg 76%
    15:00 +11°C° 0 mm 1 mps 724 mmHg 71%
    16:00 +12°C° 0 mm 1 mps 724 mmHg 66%
    17:00 +11°C° 0 mm 1 mps 724 mmHg 66%
    18:00 +10°C° 0 mm 0 mps 724 mmHg 67%
    19:00 +9°C° 0 mm 0 mps 725 mmHg 68%
    20:00 +9°C° 0 mm 0 mps 725 mmHg 68%
    21:00 +9°C° 0 mm 0 mps 725 mmHg 69%
    22:00 +9°C° 0 mm 1 mps 726 mmHg 69%
    23:00 +9°C° 0 mm 1 mps 725 mmHg 73%

    20 September, Friday

    Time Temperature Precipitation Wind Pressure Humidity
    00:00 +8°C° 0 mm 1 mps 725 mmHg 76%
    01:00 +7°C° 0 mm 1 mps 725 mmHg 80%
    02:00 +7°C° 0 mm 1 mps 725 mmHg 81%
    03:00 +6°C° 0 mm 1 mps 725 mmHg 82%
    04:00 +6°C° 0 mm 1 mps 725 mmHg 83%
    05:00 +7°C° 0 mm 1 mps 726 mmHg 79%
    06:00 +7°C° 0 mm 1 mps 726 mmHg 76%
    07:00 +8°C° 0 mm 1 mps 726 mmHg 72%
    08:00 +9°C° 0 mm 2 mps 726 mmHg 65%
    09:00 +10°C° 0 mm 3 mps 727 mmHg 58%
    10:00 +11°C° 0 mm 4 mps 727 mmHg 51%
    11:00 +12°C° 0 mm 4 mps 727 mmHg 49%
    12:00 +13°C° 0 mm 5 mps 727 mmHg 47%
    13:00 +14°C° 0 mm 5 mps 726 mmHg 45%
    14:00 +14°C° 0 mm 5 mps 726 mmHg 45%
    15:00 +13°C° 0 mm 5 mps 726 mmHg 45%
    16:00 +13°C° 0 mm 5 mps 726 mmHg 45%
    17:00 +11°C° 0 mm 4 mps 727 mmHg 50%
    18:00 +9°C° 0 mm 3 mps 727 mmHg 54%
    19:00 +7°C° 0 mm 2 mps 728 mmHg 59%
    20:00 +7°C° 0 mm 1 mps 728 mmHg 61%
    21:00 +6°C° 0 mm 1 mps 729 mmHg 63%
    22:00 +6°C° 0 mm 1 mps 729 mmHg 66%
    23:00 +5°C° 0 mm 1 mps 729 mmHg 67%
    Show more